Weather History for Wisconsin Rapids, WI

Change the Weather History Date:

Tuesday, March 26, 2013

  Actual Average Record
Temperature  
Mean Temperature 32 °F -  
Max Temperature 37 °F 46 °F 82 °F (2007)
Min Temperature 27 °F 24 °F 0 °F (1955)
Degree Days  
Heating Degree Days 33    
Moisture  
Dew Point 20 °F    
Average Humidity 60    
Maximum Humidity 75    
Minimum Humidity 47    
Precipitation  
Precipitation 0.00 in - - ()
Sea Level Pressure  
Sea Level Pressure 30.24 in    
Wind  
Wind Speed 7 mph (NNW)    
Max Wind Speed 12 mph    
Max Gust Speed 17 mph    
Visibility 10 miles    
Events Snow    
Averages and records for this station are not official NWS values.
T = Trace of Precipitation, MM = Missing Value Source: NWS Daily Summary

Daily Weather History Graph

Daily Weather History Graph

Search for Another Location

Airport:

Trip Planner

Search our weather history database for the weather conditions in past years. The results will help you decide how hot, cold, wet, or windy it might be!

Date:

Astronomy

Mar. 26, 2013 Rise Set
Actual Time 6:50 AM CDT 7:19 PM CDT
Civil Twilight 6:21 AM CDT 7:48 PM CDT
Nautical Twilight 5:47 AM CDT 8:23 PM CDT
Astronomical Twilight 5:12 AM CDT 8:58 PM CDT
Moon 6:57 PM CDT (3/26) 6:08 AM CDT (3/26)
Length of Visible Light 13h 26m
Length of Day
12h 28m
Waxing Gibbous, 99% of the Moon is Illuminated
Mar 26
Waxing Gibbous
Mar 27
Full
Apr 2
Last Quarter
Apr 10
New
Apr 18
First Quarter

Hourly Weather History & Observations

Time (CDT) Temp. Windchill Dew Point Humidity Pressure Visibility Wind Dir Wind Speed Gust Speed Precip Events Conditions
12:54 AM 30.0 °F 24.1 °F 18.0 °F 61% 30.17 in 10.0 mi North 5.8 mph - N/A   Overcast
1:54 AM 28.9 °F 21.1 °F 18.0 °F 64% 30.18 in 10.0 mi North 8.1 mph - N/A   Overcast
2:54 AM 28.0 °F 21.7 °F 17.1 °F 63% 30.18 in 10.0 mi NNW 5.8 mph - N/A   Overcast
3:54 AM 28.0 °F 21.7 °F 17.1 °F 63% 30.18 in 10.0 mi NNW 5.8 mph - N/A   Overcast
4:54 AM 27.0 °F 20.5 °F 18.0 °F 69% 30.19 in 10.0 mi NNW 5.8 mph - N/A   Overcast
5:54 AM 27.0 °F 20.5 °F 18.0 °F 69% 30.20 in 10.0 mi NNW 5.8 mph - N/A   Overcast
6:54 AM 27.0 °F 20.5 °F 18.0 °F 69% 30.22 in 10.0 mi NW 5.8 mph - N/A   Overcast
7:54 AM 27.0 °F 18.7 °F 19.0 °F 72% 30.24 in 9.0 mi NNW 8.1 mph - 0.00 in Snow Light Snow
8:54 AM 28.0 °F 20.8 °F 21.0 °F 75% 30.25 in 10.0 mi NNW 6.9 mph - 0.00 in   Overcast
9:54 AM 30.9 °F 24.3 °F 21.9 °F 69% 30.26 in 10.0 mi NNW 6.9 mph - N/A   Overcast
10:54 AM 33.1 °F 24.9 °F 23.0 °F 66% 30.26 in 10.0 mi NNW 10.4 mph - N/A   Overcast
11:54 AM 36.0 °F 30.3 °F 23.0 °F 59% 30.25 in 10.0 mi NNW 6.9 mph - N/A   Overcast
12:54 PM 37.0 °F 30.4 °F 21.0 °F 52% 30.25 in 10.0 mi North 9.2 mph 17.3 mph N/A   Overcast
1:54 PM 37.0 °F 29.8 °F 21.0 °F 52% 30.25 in 10.0 mi NW 10.4 mph - N/A   Overcast
2:54 PM 37.0 °F 29.3 °F 19.9 °F 50% 30.24 in 10.0 mi NW 11.5 mph - N/A   Overcast
3:54 PM 37.9 °F 31.5 °F 19.0 °F 47% 30.24 in 10.0 mi NNW 9.2 mph - N/A   Overcast
4:54 PM 37.9 °F 31.5 °F 19.9 °F 48% 30.24 in 10.0 mi WNW 9.2 mph - N/A   Overcast
5:54 PM 37.9 °F 31.5 °F 19.0 °F 47% 30.25 in 10.0 mi NW 9.2 mph - N/A   Overcast
6:54 PM 37.0 °F 31.6 °F 19.9 °F 50% 30.26 in 10.0 mi NNW 6.9 mph - N/A   Overcast
7:54 PM 35.1 °F 31.0 °F 19.9 °F 54% 30.27 in 10.0 mi NW 4.6 mph - N/A   Overcast
8:54 PM 35.1 °F 30.1 °F 21.0 °F 57% 30.27 in 10.0 mi NW 5.8 mph - N/A   Overcast
9:54 PM 34.0 °F - 19.9 °F 56% 30.28 in 10.0 mi Calm Calm - N/A   Overcast
10:54 PM 33.1 °F - 19.9 °F 59% 30.28 in 10.0 mi Calm Calm - N/A   Overcast
11:54 PM 33.1 °F - 21.0 °F 61% 30.29 in 10.0 mi Calm Calm - N/A   Overcast